Simultaneous Nadir Overpasses (SNOs) Predictions

Prediction of SNOs between TERRA and METOP-C Satellite Orbit:

Table of predicted SNOs for the next 14.0 days since TLE Epoch: 6/11/2022
Index Date (TERRA) Time (TERRA) Lat,Lon (TERRA) SZA (TERRA ) Date (METOP-C) Time (METOP-C) Lat,Lon (METOP-C) SZA (METOP-C ) Distance(km) Time Diff (sec)
1 06/12/2022 17:49:31 81.19, -46.12 60.31 06/12/2022 17:48:56 81.18, -46.20 60.28 1.63 35
2 06/12/2022 18:38:57 -81.21, 121.80 119.66 06/12/2022 18:39:36 -81.20, 121.72 119.65 1.63 39
3 06/15/2022 13:23:42 81.18, 20.27 60.14 06/15/2022 13:23:19 81.18, 20.19 60.12 1.39 23
4 06/15/2022 14:13:08 -81.20,-171.79 119.82 06/15/2022 14:13:59 -81.20,-171.82 119.80 0.75 51
5 06/18/2022 08:57:52 81.18, 86.56 60.02 06/18/2022 08:57:41 81.18, 86.55 60.01 0.41 11
6 06/18/2022 09:47:18 -81.20,-105.47 119.94 06/18/2022 09:48:21 -81.20,-105.40 119.90 1.21 63
7 06/21/2022 03:42:37 -81.16, -14.86 120.07 06/21/2022 03:41:26 -81.16, -15.04 120.12 3.05 71
8 06/21/2022 04:32:02 81.18, 153.14 59.99 06/21/2022 04:32:03 81.19, 153.26 60.00 2.15 1
9 06/23/2022 23:16:47 -81.17, 51.64 120.06 06/23/2022 23:15:48 -81.17, 51.68 120.08 0.68 59



Historial Predications of SNOs between TERRA and METOP-C
